,,PA_Meas_PMT16A,,PR_Meas_QMR101_102,,RH_Meas_QMH101,,SR_Meas_QMS101,,TA_Meas_QMH101,,GenWind,,GenWind,
time,status,PA,status,PR,status,RH,status,SR,status,TA,status,DirAvg,status,SpdAvg,
2010-08-07, 00:00:05,VALID,918.551,VALID,0,VALID,94.9649,VALID,0,VALID,20.6179,VALID,346,VALID,0.792969,
2010-08-07, 00:01:05,VALID,918.564,VALID,0,VALID,94.8887,VALID,0,VALID,20.5789,VALID,346,VALID,0.835547,
2010-08-07, 00:02:05,VALID,918.574,VALID,0,VALID,95.0945,VALID,0,VALID,20.5399,VALID,346,VALID,0.792969,
2010-08-07, 00:03:05,VALID,918.561,VALID,0,VALID,95.2088,VALID,0,VALID,20.5414,VALID,346,VALID,0.874609,
2010-08-07, 00:04:05,VALID,918.585,VALID,0,VALID,95.3613,VALID,0,VALID,20.5414,VALID,346,VALID,0.661328,
2010-08-07, 00:05:05,VALID,918.565,VALID,0,VALID,95.3003,VALID,0,VALID,20.5009,VALID,346,VALID,0.612109,
2010-08-07, 00:06:05,VALID,918.58,VALID,0,VALID,95.4071,VALID,0,VALID,20.5414,VALID,346,VALID,0.703125,
2010-08-07, 00:07:05,VALID,918.558,VALID,0,VALID,95.4985,VALID,0,VALID,20.5399,VALID,346,VALID,0.456641,
2010-08-07, 00:08:05,VALID,918.569,VALID,0,VALID,95.5748,VALID,0,VALID,20.5594,VALID,346,VALID,0.459766,
2010-08-07, 00:09:05,VALID,918.494,VALID,0,VALID,95.5138,VALID,0,VALID,20.5594,VALID,346,VALID,0.299219,
2010-08-07, 00:10:05,VALID,918.5,VALID,0,VALID,95.5367,VALID,0,VALID,20.5609,VALID,346,VALID,0.474609,
2010-08-07, 00:11:05,VALID,918.478,VALID,0,VALID,95.5748,VALID,0,VALID,20.5999,VALID,346,VALID,0.524609,
2010-08-07, 00:12:05,VALID,918.429,VALID,0,VALID,95.5367,VALID,0,VALID,20.5984,VALID,346,VALID,0.421094,
2010-08-07, 00:13:05,VALID,918.414,VALID,0,VALID,95.468,VALID,0,VALID,20.5804,VALID,346,VALID,0.49375,
2010-08-07, 00:14:05,VALID,918.405,VALID,0,VALID,95.3994,VALID,0,VALID,20.5594,VALID,346,VALID,0.671484,
2010-08-07, 00:15:05,VALID,918.385,VALID,0,VALID,95.4452,VALID,0,VALID,20.5594,VALID,346,VALID,0.572266,
2010-08-07, 00:16:05,VALID,918.315,VALID,0,VALID,95.5367,VALID,0,VALID,20.5594,VALID,346,VALID,0.412109,
2010-08-07, 00:17:05,VALID,918.278,VALID,0,VALID,95.6205,VALID,0,VALID,20.5399,VALID,346,VALID,0.186719,
2010-08-07, 00:18:05,VALID,918.256,VALID,0,VALID,95.6815,VALID,0,VALID,20.5594,VALID,346,VALID,0.00195313,
2010-08-07, 00:19:05,VALID,918.214,VALID,0,VALID,95.6891,VALID,0,VALID,20.5804,VALID,346,VALID,0.0480469,
2010-08-07, 00:20:05,VALID,918.205,VALID,0,VALID,95.6815,VALID,0,VALID,20.5594,VALID,346,VALID,0,
2010-08-07, 00:21:05,VALID,918.195,VALID,0,VALID,95.6281,VALID,0,VALID,20.5594,VALID,346,VALID,0.0613281,
2010-08-07, 00:22:05,VALID,918.186,VALID,0,VALID,95.5671,VALID,0,VALID,20.5399,VALID,346,VALID,0.421875,
2010-08-07, 00:23:05,VALID,918.175,VALID,0,VALID,95.5062,VALID,0,VALID,20.5609,VALID,346,VALID,0.133203,
2010-08-07, 00:24:05,VALID,918.148,VALID,0,VALID,95.4452,VALID,0,VALID,20.5399,VALID,346,VALID,0.09375,
2010-08-07, 00:25:05,VALID,918.138,VALID,0,VALID,95.3766,VALID,0,VALID,20.5204,VALID,346,VALID,0,
2010-08-07, 00:26:05,VALID,918.133,VALID,0,VALID,95.3461,VALID,0,VALID,20.5399,VALID,346,VALID,0,
2010-08-07, 00:27:05,VALID,918.12,VALID,0,VALID,95.3003,VALID,0,VALID,20.5204,VALID,346,VALID,0,
2010-08-07, 00:28:05,VALID,918.109,VALID,0,VALID,95.2393,VALID,0,VALID,20.5009,VALID,346,VALID,0,
2010-08-07, 00:29:05,VALID,918.061,VALID,0,VALID,95.1479,VALID,0,VALID,20.4813,VALID,346,VALID,0,
2010-08-07, 00:30:05,VALID,918.039,VALID,0,VALID,94.9192,VALID,0,VALID,20.4228,VALID,346,VALID,0.275781,
2010-08-07, 00:31:05,VALID,918.012,VALID,0,VALID,94.9039,VALID,0,VALID,20.3643,VALID,346,VALID,0.517187,
2010-08-07, 00:32:05,VALID,917.966,VALID,0,VALID,95.2241,VALID,0,VALID,20.3838,VALID,346,VALID,0.436719,
2010-08-07, 00:33:05,VALID,917.928,VALID,0,VALID,95.4604,VALID,0,VALID,20.4033,VALID,346,VALID,0.428125,
2010-08-07, 00:34:05,VALID,917.887,VALID,0,VALID,95.6281,VALID,0,VALID,20.4033,VALID,346,VALID,0.463281,
2010-08-07, 00:35:05,VALID,917.859,VALID,0,VALID,95.6967,VALID,0,VALID,20.4244,VALID,346,VALID,0.420703,
2010-08-07, 00:36:05,VALID,917.834,VALID,0,VALID,95.7654,VALID,0,VALID,20.3838,VALID,346,VALID,0.360938,
2010-08-07, 00:37:05,VALID,917.805,VALID,0,VALID,95.7806,VALID,0,VALID,20.4049,VALID,346,VALID,0.210938,
2010-08-07, 00:38:05,VALID,917.77,VALID,0,VALID,95.7196,VALID,0,VALID,20.3854,VALID,346,VALID,0.434766,
2010-08-07, 00:39:05,VALID,917.765,VALID,0,VALID,95.7577,VALID,0,VALID,20.4049,VALID,346,VALID,0.633984,
2010-08-07, 00:40:05,VALID,917.771,VALID,0,VALID,95.7654,VALID,0,VALID,20.3823,VALID,346,VALID,0.507031,
2010-08-07, 00:41:05,VALID,917.787,VALID,0,VALID,95.7349,VALID,0,VALID,20.4228,VALID,346,VALID,0.345703,
2010-08-07, 00:42:05,VALID,917.784,VALID,0,VALID,95.6053,VALID,0,VALID,20.3838,VALID,346,VALID,0.385547,
2010-08-07, 00:43:05,VALID,917.768,VALID,0,VALID,95.5595,VALID,0,VALID,20.3628,VALID,346,VALID,0.455078,
2010-08-07, 00:44:05,VALID,917.769,VALID,0,VALID,95.5138,VALID,0.107441,VALID,20.3643,VALID,346,VALID,0.403906,
2010-08-07, 00:45:05,VALID,917.802,VALID,0,VALID,95.529,VALID,0,VALID,20.3838,VALID,346,VALID,0.43125,
2010-08-07, 00:46:05,VALID,917.78,VALID,0,VALID,95.5443,VALID,0.107441,VALID,20.3433,VALID,346,VALID,0.322656,
2010-08-07, 00:47:05,VALID,917.791,VALID,0,VALID,95.6053,VALID,0.107441,VALID,20.3433,VALID,346,VALID,0.0703125,
2010-08-07, 00:48:05,VALID,917.803,VALID,0,VALID,95.6129,VALID,0.107441,VALID,20.3043,VALID,346,VALID,0,
2010-08-07, 00:49:05,VALID,917.783,VALID,0,VALID,95.6053,VALID,0.107441,VALID,20.3253,VALID,346,VALID,0,
2010-08-07, 00:50:05,VALID,917.786,VALID,0,VALID,95.6129,VALID,0,VALID,20.3043,VALID,346,VALID,0,
2010-08-07, 00:51:05,VALID,917.773,VALID,0,VALID,95.5976,VALID,0,VALID,20.3043,VALID,346,VALID,0,
2010-08-07, 00:52:05,VALID,917.821,VALID,0,VALID,95.3689,VALID,0,VALID,20.2458,VALID,346,VALID,0,
2010-08-07, 00:53:05,VALID,917.817,VALID,0,VALID,95.1555,VALID,0.107441,VALID,20.2083,VALID,346,VALID,0.00898437,
2010-08-07, 00:54:05,VALID,917.858,VALID,0,VALID,95.0792,VALID,0.107441,VALID,20.1678,VALID,346,VALID,0.449609,
2010-08-07, 00:55:05,VALID,917.853,VALID,0,VALID,94.9268,VALID,0,VALID,20.1123,VALID,346,VALID,0.705469,
2010-08-07, 00:56:05,VALID,917.87,VALID,0,VALID,94.8887,VALID,0,VALID,20.0718,VALID,346,VALID,0.710547,
2010-08-07, 00:57:05,VALID,917.848,VALID,0,VALID,95.1174,VALID,0,VALID,20.0538,VALID,346,VALID,0.759375,
2010-08-07, 00:58:05,VALID,917.87,VALID,0,VALID,95.2241,VALID,0,VALID,20.0328,VALID,346,VALID,0.625781,
2010-08-07, 00:59:05,VALID,917.85,VALID,0,VALID,95.2698,VALID,0,VALID,20.0148,VALID,346,VALID,0.511719,
2010-08-07, 01:00:05,VALID,917.831,VALID,0,VALID,95.2317,VALID,0,VALID,19.9743,VALID,346,VALID,0.421094,
2010-08-07, 01:01:05,VALID,917.831,VALID,0,VALID,95.2393,VALID,0,VALID,19.9368,VALID,346,VALID,0.483203,
2010-08-07, 01:02:05,VALID,917.802,VALID,0,VALID,95.4909,VALID,0,VALID,19.9353,VALID,346,VALID,0.828516,
2010-08-07, 01:03:05,VALID,917.801,VALID,0,VALID,95.5976,VALID,0,VALID,19.9758,VALID,346,VALID,0.520703,
2010-08-07, 01:04:05,VALID,917.794,VALID,0,VALID,95.6053,VALID,0,VALID,19.9563,VALID,346,VALID,0.404297,
2010-08-07, 01:05:05,VALID,917.784,VALID,0,VALID,95.6662,VALID,0,VALID,19.9353,VALID,346,VALID,0.309375,
2010-08-07, 01:06:05,VALID,917.756,VALID,0,VALID,95.7272,VALID,0,VALID,19.9758,VALID,346,VALID,0.0636719,
2010-08-07, 01:07:05,VALID,917.79,VALID,0,VALID,95.7806,VALID,0,VALID,19.9953,VALID,346,VALID,0,
2010-08-07, 01:08:05,VALID,917.782,VALID,0,VALID,95.7958,VALID,0,VALID,20.0133,VALID,346,VALID,0,
2010-08-07, 01:09:05,VALID,917.786,VALID,0,VALID,95.6967,VALID,0,VALID,19.9938,VALID,346,VALID,0.187109,
2010-08-07, 01:10:05,VALID,917.804,VALID,0,VALID,95.6281,VALID,0.107441,VALID,20.0133,VALID,346,VALID,0.00234375,
2010-08-07, 01:11:05,VALID,917.802,VALID,0,VALID,95.5671,VALID,0.107441,VALID,19.9938,VALID,346,VALID,0,
2010-08-07, 01:12:05,VALID,917.818,VALID,0,VALID,95.529,VALID,0.107441,VALID,19.9938,VALID,346,VALID,0.158203,
2010-08-07, 01:13:05,VALID,917.764,VALID,0,VALID,95.468,VALID,0,VALID,19.9533,VALID,346,VALID,0.339453,
2010-08-07, 01:14:05,VALID,917.766,VALID,0,VALID,95.3918,VALID,0.107441,VALID,19.9548,VALID,346,VALID,0.489062,
2010-08-07, 01:15:05,VALID,917.741,VALID,0,VALID,95.4223,VALID,0,VALID,19.9938,VALID,346,VALID,0.521875,
2010-08-07, 01:16:05,VALID,917.679,VALID,0,VALID,95.4147,VALID,0.107441,VALID,19.9938,VALID,346,VALID,0.732813,
2010-08-07, 01:17:05,VALID,917.656,VALID,0,VALID,95.4604,VALID,0,VALID,20.0118,VALID,346,VALID,0.554297,
2010-08-07, 01:18:05,VALID,917.615,VALID,0,VALID,95.3003,VALID,0,VALID,20.0328,VALID,346,VALID,0.753125,
2010-08-07, 01:19:05,VALID,917.625,VALID,0,VALID,95.1555,VALID,0.107441,VALID,20.0523,VALID,346,VALID,0.423047,
2010-08-07, 01:20:05,VALID,917.628,VALID,0,VALID,94.9573,VALID,0.107441,VALID,20.0313,VALID,346,VALID,0.48125,
2010-08-07, 01:21:05,VALID,917.655,VALID,0,VALID,94.7667,VALID,0.107441,VALID,20.0718,VALID,346,VALID,0.502344,
2010-08-07, 01:22:05,VALID,917.633,VALID,0,VALID,94.5532,VALID,0.107441,VALID,20.0913,VALID,346,VALID,0.69375,
2010-08-07, 01:23:05,VALID,917.629,VALID,0,VALID,94.2635,VALID,0.107441,VALID,20.0898,VALID,346,VALID,0.910156,
2010-08-07, 01:24:05,VALID,917.625,VALID,0,VALID,94.073,VALID,0,VALID,20.1303,VALID,346,VALID,0.867969,
2010-08-07, 01:25:05,VALID,917.635,VALID,0,VALID,93.9434,VALID,0,VALID,20.1108,VALID,346,VALID,0.719141,
2010-08-07, 01:26:05,VALID,917.623,VALID,0,VALID,93.8061,VALID,0.107441,VALID,20.0898,VALID,346,VALID,0.677734,
2010-08-07, 01:27:05,VALID,917.599,VALID,0,VALID,93.707,VALID,0.107441,VALID,20.1108,VALID,346,VALID,0.418359,
2010-08-07, 01:28:05,VALID,917.6,VALID,0,VALID,93.6689,VALID,0.107441,VALID,20.1108,VALID,346,VALID,0.290234,
2010-08-07, 01:29:05,VALID,917.598,VALID,0,VALID,93.6308,VALID,0,VALID,20.1108,VALID,346,VALID,0.0722656,
2010-08-07, 01:30:05,VALID,917.588,VALID,0,VALID,93.5622,VALID,0.107441,VALID,20.0913,VALID,346,VALID,0.472266,
2010-08-07, 01:31:05,VALID,917.593,VALID,0,VALID,93.8214,VALID,0.107441,VALID,20.1108,VALID,346,VALID,0.658984,
2010-08-07, 01:32:05,VALID,917.587,VALID,0,VALID,93.9281,VALID,0.107441,VALID,20.0718,VALID,346,VALID,0.456641,
2010-08-07, 01:33:05,VALID,917.607,VALID,0,VALID,94.0348,VALID,0,VALID,20.0133,VALID,346,VALID,0.239063,
2010-08-07, 01:34:05,VALID,917.601,VALID,0,VALID,93.707,VALID,0,VALID,19.9338,VALID,346,VALID,0.201172,
2010-08-07, 01:35:05,VALID,917.624,VALID,0,VALID,93.7756,VALID,0,VALID,19.9158,VALID,346,VALID,0.186328,
2010-08-07, 01:36:05,VALID,917.628,VALID,0,VALID,93.5851,VALID,0.107441,VALID,19.8378,VALID,346,VALID,0.201172,
2010-08-07, 01:37:05,VALID,917.638,VALID,0,VALID,94.1873,VALID,0.107441,VALID,19.7988,VALID,346,VALID,0.0648438,
2010-08-07, 01:38:05,VALID,917.614,VALID,0,VALID,94.3245,VALID,0.107441,VALID,19.7388,VALID,346,VALID,0.132813,
2010-08-07, 01:39:05,VALID,917.653,VALID,0,VALID,94.5304,VALID,0,VALID,19.7598,VALID,346,VALID,0,
2010-08-07, 01:40:05,VALID,917.582,VALID,0,VALID,94.66,VALID,0,VALID,19.7613,VALID,346,VALID,0,
2010-08-07, 01:41:05,VALID,917.617,VALID,0,VALID,94.7819,VALID,0,VALID,19.7613,VALID,346,VALID,0.186328,
2010-08-07, 01:42:04,VALID,917.622,VALID,0,VALID,94.942,VALID,0,VALID,19.7793,VALID,346,VALID,0,
2010-08-07, 01:43:04,VALID,917.635,VALID,0,VALID,94.8505,VALID,0,VALID,19.8198,VALID,346,VALID,0,
2010-08-07, 01:44:04,VALID,917.63,VALID,0,VALID,94.7286,VALID,0,VALID,19.8393,VALID,346,VALID,0,
2010-08-07, 01:45:04,VALID,917.623,VALID,0,VALID,94.0043,VALID,0,VALID,19.7808,VALID,346,VALID,0,
2010-08-07, 01:46:04,VALID,917.605,VALID,0,VALID,93.4707,VALID,0,VALID,19.7628,VALID,346,VALID,0.394141,
2010-08-07, 01:47:04,VALID,917.593,VALID,0,VALID,93.0972,VALID,0,VALID,19.6833,VALID,346,VALID,0.329297,
2010-08-07, 01:48:04,VALID,917.552,VALID,0,VALID,92.7541,VALID,0,VALID,19.5858,VALID,346,VALID,0.546875,
2010-08-07, 01:49:04,VALID,917.568,VALID,0,VALID,93.8595,VALID,0,VALID,19.5468,VALID,346,VALID,0.566406,
2010-08-07, 01:50:04,VALID,917.553,VALID,0,VALID,94.6066,VALID,0,VALID,19.5468,VALID,346,VALID,0.576172,
2010-08-07, 01:51:04,VALID,917.523,VALID,0,VALID,95.186,VALID,0,VALID,19.5258,VALID,346,VALID,0.530859,
2010-08-07, 01:52:04,VALID,917.515,VALID,0,VALID,95.2393,VALID,0,VALID,19.5078,VALID,346,VALID,0.462109,
2010-08-07, 01:53:04,VALID,917.498,VALID,0,VALID,95.4604,VALID,0,VALID,19.4868,VALID,346,VALID,0.390234,
2010-08-07, 01:54:04,VALID,917.482,VALID,0,VALID,95.6586,VALID,0,VALID,19.5483,VALID,346,VALID,0.351563,
2010-08-07, 01:55:04,VALID,917.49,VALID,0,VALID,95.7958,VALID,0,VALID,19.5453,VALID,346,VALID,0.201562,
2010-08-07, 01:56:04,VALID,917.462,VALID,0,VALID,95.8035,VALID,0,VALID,19.5453,VALID,346,VALID,0.196094,
2010-08-07, 01:57:04,VALID,917.423,VALID,0,VALID,95.7882,VALID,0,VALID,19.5453,VALID,346,VALID,0.178125,
2010-08-07, 01:58:04,VALID,917.422,VALID,0,VALID,95.712,VALID,0,VALID,19.5453,VALID,346,VALID,0.366406,
2010-08-07, 01:59:04,VALID,917.422,VALID,0,VALID,95.6967,VALID,0,VALID,19.5453,VALID,346,VALID,0.440234,
2010-08-07, 02:00:04,VALID,917.399,VALID,0,VALID,95.6815,VALID,0,VALID,19.5453,VALID,346,VALID,0.36875,
2010-08-07, 02:01:04,VALID,917.392,VALID,0,VALID,95.773,VALID,0.107441,VALID,19.5843,VALID,346,VALID,0.270312,
2010-08-07, 02:02:04,VALID,917.319,VALID,0,VALID,95.834,VALID,0,VALID,19.5843,VALID,346,VALID,0.0730469,
2010-08-07, 02:03:04,VALID,917.319,VALID,0,VALID,95.7654,VALID,0,VALID,19.6038,VALID,346,VALID,0,
2010-08-07, 02:04:04,VALID,917.343,VALID,0,VALID,95.5976,VALID,0,VALID,19.5648,VALID,346,VALID,0.00351562,
2010-08-07, 02:05:04,VALID,917.342,VALID,0,VALID,95.5138,VALID,0,VALID,19.5843,VALID,346,VALID,0.0367187,
2010-08-07, 02:06:04,VALID,917.338,VALID,0,VALID,95.3537,VALID,0,VALID,19.5663,VALID,346,VALID,0,
2010-08-07, 02:07:04,VALID,917.312,VALID,0,VALID,95.3003,VALID,0,VALID,19.5258,VALID,346,VALID,0,
2010-08-07, 02:08:04,VALID,917.316,VALID,0,VALID,95.3994,VALID,0,VALID,19.5648,VALID,346,VALID,0,
2010-08-07, 02:09:04,VALID,917.286,VALID,0,VALID,95.3766,VALID,0,VALID,19.5453,VALID,346,VALID,0,
2010-08-07, 02:10:04,VALID,917.253,VALID,0,VALID,95.3232,VALID,0,VALID,19.5258,VALID,346,VALID,0,
2010-08-07, 02:11:04,VALID,917.24,VALID,0,VALID,95.2241,VALID,0,VALID,19.5258,VALID,346,VALID,0,
2010-08-07, 02:12:04,VALID,917.21,VALID,0,VALID,95.2165,VALID,0,VALID,19.5063,VALID,346,VALID,0.464063,
2010-08-07, 02:13:04,VALID,917.166,VALID,0,VALID,95.3079,VALID,0,VALID,19.5063,VALID,346,VALID,0.405078,
2010-08-07, 02:14:04,VALID,917.155,VALID,0,VALID,95.3842,VALID,0,VALID,19.5063,VALID,346,VALID,0.389453,
2010-08-07, 02:15:04,VALID,917.124,VALID,0,VALID,95.4071,VALID,0,VALID,19.5258,VALID,346,VALID,0.344531,
2010-08-07, 02:16:04,VALID,917.134,VALID,0,VALID,95.5519,VALID,0,VALID,19.5258,VALID,346,VALID,0.373828,
2010-08-07, 02:17:04,VALID,917.123,VALID,0,VALID,95.6739,VALID,0,VALID,19.5648,VALID,346,VALID,0.347656,
2010-08-07, 02:18:04,VALID,917.107,VALID,0,VALID,95.6434,VALID,0,VALID,19.5243,VALID,346,VALID,0.220703,
2010-08-07, 02:19:04,VALID,917.07,VALID,0,VALID,95.6281,VALID,0,VALID,19.5453,VALID,346,VALID,0.564844,
2010-08-07, 02:20:04,VALID,917.087,VALID,0,VALID,95.6129,VALID,0,VALID,19.5258,VALID,346,VALID,0.613672,
2010-08-07, 02:21:04,VALID,917.046,VALID,0,VALID,95.6357,VALID,0,VALID,19.5453,VALID,346,VALID,0.510938,
2010-08-07, 02:22:04,VALID,917.055,VALID,0,VALID,95.6739,VALID,0,VALID,19.5438,VALID,346,VALID,0.381641,
2010-08-07, 02:23:04,VALID,917.035,VALID,0,VALID,95.6815,VALID,0,VALID,19.5648,VALID,346,VALID,0.278516,
2010-08-07, 02:24:04,VALID,917.003,VALID,0,VALID,95.7044,VALID,0,VALID,19.5843,VALID,346,VALID,0.1875,
2010-08-07, 02:25:04,VALID,917.013,VALID,0,VALID,95.651,VALID,0,VALID,19.5858,VALID,346,VALID,0,
2010-08-07, 02:26:04,VALID,916.99,VALID,0,VALID,95.4909,VALID,0,VALID,19.5468,VALID,346,VALID,0,
2010-08-07, 02:27:04,VALID,916.977,VALID,0,VALID,95.4604,VALID,0,VALID,19.5468,VALID,346,VALID,0,
2010-08-07, 02:28:04,VALID,917.003,VALID,0,VALID,95.4833,VALID,0,VALID,19.5078,VALID,346,VALID,0,
2010-08-07, 02:29:04,VALID,917.014,VALID,0,VALID,95.5671,VALID,0,VALID,19.5273,VALID,346,VALID,0,
2010-08-07, 02:30:04,VALID,917.004,VALID,0,VALID,95.5519,VALID,0,VALID,19.5078,VALID,346,VALID,0,
2010-08-07, 02:31:04,VALID,917.009,VALID,0,VALID,95.5214,VALID,0,VALID,19.4883,VALID,346,VALID,0,
2010-08-07, 02:32:04,VALID,917.02,VALID,0,VALID,95.5443,VALID,0,VALID,19.4688,VALID,346,VALID,0,
2010-08-07, 02:33:04,VALID,917.006,VALID,0,VALID,95.4147,VALID,0,VALID,19.4298,VALID,346,VALID,0,
2010-08-07, 02:34:04,VALID,916.989,VALID,0,VALID,95.3689,VALID,0,VALID,19.4103,VALID,346,VALID,0,
2010-08-07, 02:35:04,VALID,916.968,VALID,0,VALID,95.4985,VALID,0,VALID,19.4688,VALID,346,VALID,0.463281,
2010-08-07, 02:36:04,VALID,916.938,VALID,0,VALID,95.468,VALID,0,VALID,19.4298,VALID,346,VALID,0.527344,
2010-08-07, 02:37:04,VALID,916.946,VALID,0,VALID,95.5214,VALID,0,VALID,19.4508,VALID,346,VALID,0.845312,
2010-08-07, 02:38:04,VALID,916.919,VALID,0,VALID,95.7044,VALID,0,VALID,19.4298,VALID,346,VALID,0.748828,
2010-08-07, 02:39:04,VALID,916.895,VALID,0,VALID,95.834,VALID,0,VALID,19.4298,VALID,346,VALID,0.871484,
2010-08-07, 02:40:04,VALID,916.885,VALID,0,VALID,95.9178,VALID,0.107441,VALID,19.4088,VALID,346,VALID,0.904688,
2010-08-07, 02:41:04,VALID,916.836,VALID,0,VALID,95.9559,VALID,0,VALID,19.3893,VALID,346,VALID,0.789453,
2010-08-07, 02:42:04,VALID,916.819,VALID,0,VALID,95.9559,VALID,0,VALID,19.3308,VALID,346,VALID,0.332812,
2010-08-07, 02:43:04,VALID,916.798,VALID,0,VALID,95.9788,VALID,0,VALID,19.3113,VALID,346,VALID,0.639844,
2010-08-07, 02:44:04,VALID,916.79,VALID,0,VALID,96.0017,VALID,0.107441,VALID,19.3113,VALID,346,VALID,0.309766,
2010-08-07, 02:45:04,VALID,916.735,VALID,0,VALID,96.055,VALID,0,VALID,19.3113,VALID,346,VALID,0.182812,
2010-08-07, 02:46:04,VALID,916.762,VALID,0,VALID,96.1465,VALID,0,VALID,19.3113,VALID,346,VALID,0.501953,
2010-08-07, 02:47:04,VALID,916.727,VALID,0,VALID,96.2533,VALID,0.107441,VALID,19.3713,VALID,346,VALID,0.75,
2010-08-07, 02:48:04,VALID,916.739,VALID,0,VALID,96.36,VALID,0,VALID,19.3698,VALID,346,VALID,0.439844,
2010-08-07, 02:49:04,VALID,916.71,VALID,0,VALID,96.3829,VALID,0,VALID,19.3698,VALID,346,VALID,0.648047,
2010-08-07, 02:50:04,VALID,916.702,VALID,0,VALID,96.3676,VALID,0,VALID,19.3518,VALID,346,VALID,0.520312,
2010-08-07, 02:51:04,VALID,916.681,VALID,0,VALID,96.421,VALID,0,VALID,19.3323,VALID,346,VALID,0.655859,
2010-08-07, 02:52:04,VALID,916.683,VALID,0,VALID,96.4362,VALID,0,VALID,19.2918,VALID,346,VALID,0.635938,
2010-08-07, 02:53:04,VALID,916.698,VALID,0,VALID,96.5582,VALID,0,VALID,19.3713,VALID,346,VALID,0.845703,
2010-08-07, 02:54:04,VALID,916.668,VALID,0,VALID,96.6192,VALID,0,VALID,19.3503,VALID,346,VALID,0.558203,
2010-08-07, 02:55:04,VALID,916.668,VALID,0,VALID,96.6649,VALID,0,VALID,19.3713,VALID,346,VALID,0.603906,
2010-08-07, 02:56:04,VALID,916.646,VALID,0,VALID,96.6725,VALID,0,VALID,19.3308,VALID,346,VALID,0.270703,
2010-08-07, 02:57:04,VALID,916.623,VALID,0,VALID,96.6802,VALID,0,VALID,19.3113,VALID,346,VALID,0.05625,
2010-08-07, 02:58:04,VALID,916.599,VALID,0,VALID,96.6497,VALID,0.107441,VALID,19.2528,VALID,346,VALID,0,
2010-08-07, 02:59:04,VALID,916.605,VALID,0,VALID,96.7259,VALID,0,VALID,19.2528,VALID,346,VALID,0,
2010-08-07, 03:00:04,VALID,916.622,VALID,0,VALID,96.7411,VALID,0.107441,VALID,19.2723,VALID,346,VALID,0,
2010-08-07, 03:01:04,VALID,916.603,VALID,0,VALID,96.7945,VALID,0,VALID,19.2723,VALID,346,VALID,0,
2010-08-07, 03:02:04,VALID,916.625,VALID,0,VALID,96.8021,VALID,0,VALID,19.2723,VALID,346,VALID,0,
2010-08-07, 03:03:04,VALID,916.62,VALID,0,VALID,96.8479,VALID,0,VALID,19.2723,VALID,346,VALID,0,
2010-08-07, 03:04:04,VALID,916.622,VALID,0,VALID,96.8479,VALID,0,VALID,19.2723,VALID,346,VALID,0,
2010-08-07, 03:05:04,VALID,916.637,VALID,0,VALID,96.7945,VALID,0.107441,VALID,19.2139,VALID,346,VALID,0,
2010-08-07, 03:06:04,VALID,916.606,VALID,0,VALID,96.7945,VALID,0,VALID,19.1749,VALID,346,VALID,0.395312,
2010-08-07, 03:07:04,VALID,916.633,VALID,0,VALID,96.8403,VALID,0,VALID,19.1554,VALID,346,VALID,0.341797,
2010-08-07, 03:08:04,VALID,916.633,VALID,0,VALID,96.8555,VALID,0,VALID,19.1554,VALID,346,VALID,0.727344,
2010-08-07, 03:09:04,VALID,916.592,VALID,0,VALID,96.9165,VALID,0,VALID,19.1944,VALID,346,VALID,0.771484,
2010-08-07, 03:10:04,VALID,916.637,VALID,0,VALID,96.9394,VALID,0,VALID,19.1944,VALID,346,VALID,0.699609,
2010-08-07, 03:11:04,VALID,916.593,VALID,0,VALID,96.9241,VALID,0,VALID,19.1944,VALID,346,VALID,0.623438,
2010-08-07, 03:12:04,VALID,916.626,VALID,0,VALID,96.9165,VALID,0,VALID,19.1554,VALID,347,VALID,0.626562,
2010-08-07, 03:13:04,VALID,916.629,VALID,0,VALID,96.9698,VALID,0,VALID,19.1944,VALID,2,VALID,0.736328,
2010-08-07, 03:14:04,VALID,916.627,VALID,0,VALID,96.9851,VALID,0,VALID,19.1944,VALID,2,VALID,0.651953,
2010-08-07, 03:15:04,VALID,916.623,VALID,0,VALID,97.008,VALID,0,VALID,19.2348,VALID,2,VALID,0.3875,
2010-08-07, 03:16:04,VALID,916.629,VALID,0,VALID,97.0156,VALID,0.107441,VALID,19.2139,VALID,2,VALID,0.273438,
2010-08-07, 03:17:04,VALID,916.635,VALID,0,VALID,96.9012,VALID,0,VALID,19.1554,VALID,2,VALID,0.222656,
2010-08-07, 03:18:04,VALID,916.644,VALID,0,VALID,96.8707,VALID,0,VALID,19.0774,VALID,2,VALID,0.4125,
2010-08-07, 03:19:04,VALID,916.673,VALID,0,VALID,96.8784,VALID,0.107441,VALID,19.0384,VALID,2,VALID,0.571094,
2010-08-07, 03:20:04,VALID,916.668,VALID,0,VALID,96.9851,VALID,0.107441,VALID,19.0384,VALID,2,VALID,0.550781,
2010-08-07, 03:21:04,VALID,916.67,VALID,0,VALID,97.0842,VALID,0.107441,VALID,19.0983,VALID,2,VALID,0.136328,
2010-08-07, 03:22:04,VALID,916.699,VALID,0,VALID,97.1147,VALID,0,VALID,19.1359,VALID,2,VALID,0.233203,
2010-08-07, 03:23:04,VALID,916.699,VALID,0,VALID,97.1528,VALID,0,VALID,19.1958,VALID,2,VALID,0.383594,
2010-08-07, 03:24:04,VALID,916.711,VALID,0,VALID,97.1452,VALID,0,VALID,19.1763,VALID,2,VALID,0.441016,
2010-08-07, 03:25:04,VALID,916.719,VALID,0,VALID,97.1299,VALID,0,VALID,19.1944,VALID,2,VALID,0.421875,
2010-08-07, 03:26:04,VALID,916.674,VALID,0,VALID,97.1452,VALID,0,VALID,19.2153,VALID,2,VALID,0.252734,
2010-08-07, 03:27:04,VALID,916.65,VALID,0,VALID,97.1757,VALID,0,VALID,19.2334,VALID,2,VALID,0,
2010-08-07, 03:28:04,VALID,916.643,VALID,0,VALID,97.1757,VALID,0,VALID,19.2933,VALID,2,VALID,0.269531,
2010-08-07, 03:29:04,VALID,916.642,VALID,0,VALID,97.1681,VALID,0,VALID,19.3128,VALID,2,VALID,0.235547,
2010-08-07, 03:30:04,VALID,916.645,VALID,0,VALID,97.1833,VALID,0,VALID,19.3308,VALID,2,VALID,0.0652344,
2010-08-07, 03:31:04,VALID,916.703,VALID,0,VALID,97.1757,VALID,0,VALID,19.3308,VALID,2,VALID,0.172656,
2010-08-07, 03:32:04,VALID,916.655,VALID,0,VALID,97.1681,VALID,0,VALID,19.3503,VALID,2,VALID,0,
2010-08-07, 03:33:04,VALID,916.67,VALID,0,VALID,97.1757,VALID,0,VALID,19.3908,VALID,2,VALID,0,
2010-08-07, 03:34:04,VALID,916.698,VALID,0,VALID,97.1528,VALID,0,VALID,19.3308,VALID,2,VALID,0,
2010-08-07, 03:35:04,VALID,916.69,VALID,0,VALID,97.0918,VALID,0,VALID,19.3128,VALID,2,VALID,0,
2010-08-07, 03:36:04,VALID,916.699,VALID,0,VALID,97.0461,VALID,0,VALID,19.2543,VALID,2,VALID,0,
2010-08-07, 03:37:04,VALID,916.712,VALID,0,VALID,97.0842,VALID,0,VALID,19.2139,VALID,2,VALID,0,
2010-08-07, 03:38:04,VALID,916.703,VALID,0,VALID,97.0613,VALID,0,VALID,19.2153,VALID,2,VALID,0,
2010-08-07, 03:39:04,VALID,916.704,VALID,0,VALID,96.9241,VALID,0,VALID,19.1763,VALID,2,VALID,0,
2010-08-07, 03:40:04,VALID,916.669,VALID,0,VALID,96.947,VALID,0,VALID,19.1373,VALID,2,VALID,0.111719,
2010-08-07, 03:41:04,VALID,916.706,VALID,0,VALID,97.0537,VALID,0,VALID,19.1373,VALID,2,VALID,0.380859,
2010-08-07, 03:42:04,VALID,916.691,VALID,0,VALID,96.9165,VALID,0,VALID,19.0969,VALID,2,VALID,0,
2010-08-07, 03:43:04,VALID,916.688,VALID,0,VALID,96.9622,VALID,0,VALID,19.0579,VALID,2,VALID,0.267188,
2010-08-07, 03:44:04,VALID,916.735,VALID,0,VALID,97.0537,VALID,0,VALID,19.1178,VALID,2,VALID,0.500781,
2010-08-07, 03:45:04,VALID,916.743,VALID,0,VALID,97.1681,VALID,0,VALID,19.2153,VALID,2,VALID,0.459375,